Back to catalog

SEDSAT 1

AliveScienceLEO
NORAD 25509·PAYLOAD·🇺🇸 United States

Launched Oct 24, 1998 from Cape Canaveral Space Force Station

Loading…

Next Passes (next 24 hours)

TLE

FreshSource: Space-Track

Epoch: Sep 14, 2026, 11:46 UTC

1 25509U 98061B   26257.49061552  .00000351  00000-0  54206-4 0  9999
2 25509  31.4312 325.5655 0335882 141.5234 220.9846 14.33428990458659

Track SEDSAT 1 in real time with AllMySat

Download on the App Store